User: anonymous   Login
Location: Haliburton Scout Reserve
(45.0900°N, 78.3200°W)
Time: 18:42:17
(UTC-04:00)
Language:

ESTCUBE 1 - Orbit

View from above orbital plane
View from above orbital plane
View from above satellite
View from above satellite

Ground track
Ground track

The orbit data is extracted from the following two-line orbital elements,

1 39161U 13021C   22267.19072015  .00001031  00000-0  16752-3 0  9990
2 39161  97.9037 341.8401 0010906 102.6913 257.5513 14.73111537504006
Epoch (UTC): 24 September 2022 04:34:38
Eccentricity: 0.0010906
inclination: 97.9037°
perigee height: 643 km
apogee height: 659 km
right ascension of ascending node: 341.8401°
argument of perigee: 102.6913°
revolutions per day: 14.73111537
mean anomaly at epoch: 257.5513°
orbit number at epoch: 50400

The dashed part of the orbit path shows where the satellite is in the earth's shadow,  

DLR